Location: Newark
(47.3150°N, 5.1150°E)
Time: 12:04:07
(UTC+00:00)

O/OREOS (USA 219) - Pass Details

Date: 24 December 2019
Orbit: 621 x 646 km, 72.0° (Epoch: 22 May)

Event Time Altitude Azimuth Distance (km) Brightness Sun altitude
Rises 18:23:41 0° 195° (SSW) 2,941 ? -24.3°
Reaches altitude 10° 18:25:57 10° 193° (SSW) 2,037 ? -24.7°
Enters shadow 18:29:04 42° 176° (S) 930 ? -25.3°
